Weather History for K4M9 - October, 2013

Change the Weather History Date:

Monday, October 7, 2013

  Actual Average (KARG) Record (KARG)
Temperature  
Mean Temperature 59 °F -  
Max Temperature 68 °F 72 °F 89 °F (2007)
Min Temperature 50 °F 51 °F 39 °F (2001)
Degree Days  
Heating Degree Days 6    
Growing Degree Days 9 (Base 50)    
Moisture  
Dew Point 48 °F    
Average Humidity 72    
Maximum Humidity 88    
Minimum Humidity 49    
Precipitation  
Precipitation 0.00 in - - ()
Sea Level Pressure  
Sea Level Pressure 30.07 in    
Wind  
Wind Speed 6 mph (NNW)    
Max Wind Speed 13 mph    
Max Gust Speed 18 mph    
Visibility 10 miles    
Events      
Averages and records for this station are not official NWS values.
T = Trace of Precipitation, MM = Missing Value Source: NWS Daily Summary

Daily Weather History Graph

Daily Weather History Graph

Search for Another Location

Airport or City:

Trip Planner

Search our weather history database for the weather conditions in past years. The results will help you decide how hot, cold, wet, or windy it might be!

Date:

Astronomy

Oct. 07, 2013 Rise Set
Actual Time 7:03 AM CDT 6:37 PM CDT
Civil Twilight 6:37 AM CDT 7:02 PM CDT
Nautical Twilight 6:07 AM CDT 7:32 PM CDT
Astronomical Twilight 5:37 AM CDT 8:02 PM CDT
Moon 9:47 AM CDT (10/7) 8:27 PM CDT (10/7)
Length of Visible Light 12h 25m
Length of Day
11h 34m
Waxing Crescent, 9% of the Moon is Illuminated
Oct 7
Waxing Crescent
Oct 11
First Quarter
Oct 18
Full
Oct 26
Last Quarter
Nov 3
New

Hourly Weather History & Observations

Time (CDT) Temp. Dew Point Humidity Pressure Visibility Wind Dir Wind Speed Gust Speed Precip Events Conditions
12:15 AM 50.0 °F 46.4 °F 87% 29.97 in 10.0 mi WSW 3.5 mph - N/A   Clear
12:35 AM 50.0 °F 46.4 °F 87% 29.97 in 10.0 mi WSW 4.6 mph - N/A   Clear
12:55 AM 50.0 °F 46.4 °F 87% 29.97 in 10.0 mi WSW 4.6 mph - N/A   Scattered Clouds
1:15 AM 51.8 °F 48.2 °F 88% 29.97 in 10.0 mi WSW 9.2 mph - N/A   Mostly Cloudy
1:35 AM 53.6 °F 46.4 °F 77% 29.97 in 10.0 mi West 8.1 mph - N/A   Partly Cloudy
1:55 AM 53.6 °F 46.4 °F 77% 29.97 in 8.0 mi West 8.1 mph - N/A   Clear
2:15 AM 51.8 °F 46.4 °F 82% 29.97 in 10.0 mi West 8.1 mph - N/A   Clear
2:35 AM 51.8 °F 46.4 °F 82% 29.97 in 10.0 mi West 6.9 mph - N/A   Clear
2:55 AM 51.8 °F 46.4 °F 82% 29.97 in 10.0 mi West 8.1 mph - N/A   Clear
3:15 AM 50.0 °F 46.4 °F 87% 29.97 in 10.0 mi WNW 6.9 mph - N/A   Clear
3:35 AM 50.0 °F 46.4 °F 87% 29.98 in 10.0 mi WNW 6.9 mph - N/A   Clear
3:55 AM 50.0 °F 46.4 °F 87% 29.98 in 10.0 mi NW 8.1 mph - N/A   Clear
4:15 AM 50.0 °F 46.4 °F 87% 29.99 in 10.0 mi NW 8.1 mph - N/A   Clear
4:35 AM 50.0 °F 46.4 °F 87% 29.99 in 10.0 mi NW 10.4 mph - N/A   Clear
4:55 AM 50.0 °F 46.4 °F 87% 29.99 in 10.0 mi NNW 10.4 mph - N/A   Clear
5:15 AM 50.0 °F 46.4 °F 87% 30.00 in 10.0 mi NW 11.5 mph - N/A   Clear
5:35 AM 50.0 °F 46.4 °F 87% 30.01 in 10.0 mi NNW 11.5 mph 18.4 mph N/A   Clear
5:55 AM 50.0 °F 46.4 °F 87% 30.01 in 10.0 mi NNW 12.7 mph - N/A   Clear
6:15 AM 50.0 °F 46.4 °F 87% 30.02 in 10.0 mi NNW 8.1 mph - N/A   Clear
6:35 AM 50.0 °F 46.4 °F 87% 30.03 in 10.0 mi NW 8.1 mph - N/A   Clear
6:55 AM 50.0 °F 46.4 °F 87% 30.03 in 10.0 mi NW 6.9 mph - N/A   Clear
7:15 AM 50.0 °F 46.4 °F 87% 30.05 in 10.0 mi NNW 3.5 mph - N/A   Clear
7:35 AM 50.0 °F 46.4 °F 87% 30.06 in 10.0 mi NNW 4.6 mph - N/A   Clear
7:55 AM 51.8 °F 46.4 °F 82% 30.07 in 10.0 mi North 3.5 mph - N/A   Clear
8:15 AM 53.6 °F 46.4 °F 77% 30.08 in 10.0 mi North 3.5 mph - N/A   Clear
8:35 AM 53.6 °F 46.4 °F 77% 30.09 in 10.0 mi NNW 3.5 mph - N/A   Clear
8:55 AM 55.4 °F 46.4 °F 72% 30.10 in 10.0 mi NNE 6.9 mph - N/A   Clear
9:15 AM 55.4 °F 46.4 °F 72% 30.10 in 10.0 mi North 9.2 mph - N/A   Clear
9:35 AM 57.2 °F 46.4 °F 67% 30.11 in 10.0 mi NNW 9.2 mph - N/A   Clear
9:55 AM 57.2 °F 46.4 °F 67% 30.11 in 10.0 mi NNW 6.9 mph - N/A   Clear
10:15 AM 59.0 °F 46.4 °F 63% 30.12 in 10.0 mi North 9.2 mph - N/A   Clear
10:35 AM 59.0 °F 46.4 °F 63% 30.12 in 10.0 mi NNW 8.1 mph - N/A   Clear
10:55 AM 59.0 °F 46.4 °F 63% 30.11 in 10.0 mi NNW 8.1 mph - N/A   Clear
11:15 AM 60.8 °F 48.2 °F 63% 30.12 in 10.0 mi North 8.1 mph - N/A   Clear
11:35 AM 62.6 °F 48.2 °F 59% 30.12 in 10.0 mi NNW 6.9 mph - N/A   Clear
11:55 AM 62.6 °F 46.4 °F 55% 30.12 in 10.0 mi North 8.1 mph - N/A   Clear
12:15 PM 64.4 °F 48.2 °F 56% 30.11 in 10.0 mi North 8.1 mph - N/A   Clear
12:35 PM 64.4 °F 48.2 °F 56% 30.11 in 10.0 mi NNE 5.8 mph - N/A   Clear
12:55 PM 64.4 °F 46.4 °F 52% 30.10 in 10.0 mi North 6.9 mph - N/A   Clear
1:15 PM 64.4 °F 48.2 °F 56% 30.10 in 10.0 mi NW 9.2 mph - N/A   Clear
1:35 PM 66.2 °F 48.2 °F 52% 30.10 in 10.0 mi NNW 6.9 mph - N/A   Clear
1:55 PM 66.2 °F 48.2 °F 52% 30.09 in 2.5 mi NNW 3.5 mph - N/A   Haze
2:15 PM 66.2 °F 48.2 °F 52% 30.09 in 10.0 mi NW 3.5 mph - N/A   Clear
2:35 PM 68.0 °F 48.2 °F 49% 30.09 in 10.0 mi WNW 9.2 mph - N/A   Clear
2:55 PM 68.0 °F 48.2 °F 49% 30.09 in 10.0 mi NNW 5.8 mph - N/A   Clear
3:15 PM 68.0 °F 48.2 °F 49% 30.09 in 10.0 mi North 3.5 mph - N/A   Clear
3:35 PM 68.0 °F 48.2 °F 49% 30.09 in 10.0 mi NNW 10.4 mph - N/A   Clear
3:55 PM 68.0 °F 48.2 °F 49% 30.08 in 10.0 mi NW 6.9 mph - N/A   Clear
4:15 PM 68.0 °F 48.2 °F 49% 30.08 in 10.0 mi NNW 10.4 mph - N/A   Clear
4:35 PM 68.0 °F 48.2 °F 49% 30.08 in 10.0 mi NNW 5.8 mph - N/A   Clear
4:55 PM 68.0 °F 50.0 °F 52% 30.08 in 10.0 mi North 8.1 mph - N/A   Clear
5:15 PM 68.0 °F 50.0 °F 52% 30.08 in 10.0 mi North 8.1 mph - N/A   Clear
5:35 PM 66.2 °F 48.2 °F 52% 30.08 in 10.0 mi North 8.1 mph - N/A   Clear
5:55 PM 66.2 °F 50.0 °F 56% 30.09 in 10.0 mi North 6.9 mph - N/A   Clear
6:15 PM 64.4 °F 48.2 °F 56% 30.09 in 10.0 mi North 5.8 mph - N/A   Clear
6:35 PM 62.6 °F 50.0 °F 63% 30.10 in 10.0 mi Calm Calm - N/A   Clear
6:55 PM 59.0 °F 50.0 °F 72% 30.10 in 10.0 mi Calm Calm - N/A   Clear
7:15 PM 59.0 °F 50.0 °F 72% 30.10 in 10.0 mi North 4.6 mph - N/A   Clear
7:35 PM 60.8 °F 48.2 °F 63% 30.11 in 10.0 mi North 4.6 mph - N/A   Clear
7:55 PM 57.2 °F 50.0 °F 77% 30.12 in 10.0 mi Calm Calm - N/A   Clear
8:15 PM 55.4 °F 51.8 °F 88% 30.13 in 10.0 mi NNW 3.5 mph - N/A   Clear
8:35 PM 57.2 °F 50.0 °F 77% 30.14 in 10.0 mi North 4.6 mph - N/A   Clear
8:55 PM 57.2 °F 50.0 °F 77% 30.14 in 10.0 mi North 4.6 mph - N/A   Clear
9:15 PM 57.2 °F 50.0 °F 77% 30.14 in 10.0 mi NNE 3.5 mph - N/A   Clear
9:35 PM 57.2 °F 50.0 °F 77% 30.14 in 10.0 mi North 3.5 mph - N/A   Clear
9:55 PM 53.6 °F 50.0 °F 88% 30.15 in 10.0 mi Calm Calm - N/A   Clear
10:15 PM 53.6 °F 50.0 °F 88% 30.15 in 10.0 mi North 5.8 mph - N/A   Clear
10:35 PM 53.6 °F 50.0 °F 88% 30.15 in 10.0 mi North 5.8 mph - N/A   Clear
10:55 PM 53.6 °F 50.0 °F 88% 30.15 in 10.0 mi North 5.8 mph - N/A   Clear
11:15 PM 53.6 °F 50.0 °F 88% 30.15 in 10.0 mi North 4.6 mph - N/A   Clear
11:35 PM 53.6 °F 50.0 °F 88% 30.14 in 10.0 mi North 5.8 mph - N/A   Clear
11:55 PM 51.8 °F 48.2 °F 88% 30.15 in 10.0 mi North 5.8 mph - N/A   Clear